TimeCET,TemperatureF,Dew PointF,Humidity,Sea Level PressureIn,VisibilityMPH,Wind Direction,Wind SpeedMPH,Gust SpeedMPH,PrecipitationIn,Events,Conditions,WindDirDegrees,DateUTC
12:00 AM,57.2,46.4,67,29.95,6.2,West,10.4,-,N/A,,Partly Cloudy,270,2013-02-17 23:00:00
12:30 AM,57.2,46.4,67,29.95,6.2,West,8.1,-,N/A,,Partly Cloudy,270,2013-02-17 23:30:00
1:00 AM,53,46,71,29.96,12,NW,6.9,,,,Scattered Clouds,320,2013-02-18 00:00:00
1:00 AM,50.0,46.4,87,29.95,6.2,NW,6.9,-,N/A,,Partly Cloudy,320,2013-02-18 00:00:00
1:30 AM,50.0,44.6,82,29.95,6.2,WNW,4.6,-,N/A,,Partly Cloudy,300,2013-02-18 00:30:00
2:00 AM,48.2,46.4,93,29.95,6.2,NW,5.8,-,N/A,,Partly Cloudy,310,2013-02-18 01:00:00
2:30 AM,48.2,46.4,93,29.95,6.2,WNW,4.6,-,N/A,,Partly Cloudy,300,2013-02-18 01:30:00
3:00 AM,48.2,44.6,87,29.95,6.2,WNW,5.8,-,N/A,,Partly Cloudy,300,2013-02-18 02:00:00
3:30 AM,48.2,46.4,93,29.92,6.2,West,6.9,-,N/A,,Partly Cloudy,280,2013-02-18 02:30:00
4:00 AM,46.4,44.6,93,29.92,6.2,WNW,4.6,-,N/A,,Partly Cloudy,300,2013-02-18 03:00:00
4:30 AM,48.2,44.6,87,29.92,6.2,NW,4.6,-,N/A,,Partly Cloudy,310,2013-02-18 03:30:00
5:00 AM,46.4,44.6,93,29.92,6.2,WNW,5.8,-,N/A,,Partly Cloudy,300,2013-02-18 04:00:00
5:30 AM,46.4,44.6,93,29.92,6.2,NW,4.6,-,N/A,,Partly Cloudy,310,2013-02-18 04:30:00
6:00 AM,46.4,44.6,93,29.89,6.2,Variable,2.3,-,N/A,,Partly Cloudy,0,2013-02-18 05:00:00
6:30 AM,46.4,44.6,93,29.92,6.2,WNW,8.1,-,N/A,,Partly Cloudy,290,2013-02-18 05:30:00
7:00 AM,48,45,84,29.91,12,WNW,3.5,,,,Scattered Clouds,290,2013-02-18 06:00:00
7:00 AM,46.4,44.6,93,29.89,6.2,WNW,3.5,-,N/A,,Partly Cloudy,290,2013-02-18 06:00:00
7:30 AM,46.4,44.6,93,29.92,6.2,WNW,6.9,-,N/A,,Partly Cloudy,290,2013-02-18 06:30:00
8:00 AM,46.4,44.6,93,29.92,6.2,WNW,8.1,-,N/A,,Scattered Clouds,300,2013-02-18 07:00:00
8:30 AM,48.2,44.6,87,29.92,6.2,WNW,5.8,-,N/A,,Scattered Clouds,290,2013-02-18 07:30:00
9:00 AM,48.2,46.4,93,29.92,6.2,West,3.5,-,N/A,,Scattered Clouds,280,2013-02-18 08:00:00
9:30 AM,50.0,46.4,87,29.92,6.2,West,3.5,-,N/A,,Mostly Cloudy,270,2013-02-18 08:30:00
10:00 AM,51.8,48.2,88,29.92,6.2,Variable,2.3,-,N/A,,Scattered Clouds,0,2013-02-18 09:00:00
10:30 AM,57.2,48.2,72,29.92,6.2,West,3.5,-,N/A,,Scattered Clouds,280,2013-02-18 09:30:00
11:00 AM,59.0,48.2,67,29.92,6.2,Variable,1.2,-,N/A,,Scattered Clouds,0,2013-02-18 10:00:00
11:30 AM,59.0,48.2,67,29.92,6.2,Calm,Calm,-,N/A,,Scattered Clouds,0,2013-02-18 10:30:00
12:00 PM,60.8,51.8,72,29.92,6.2,NE,1.2,-,N/A,,Scattered Clouds,40,2013-02-18 11:00:00
12:30 PM,60.8,51.8,72,29.92,6.2,NE,5.8,-,N/A,,Scattered Clouds,50,2013-02-18 11:30:00
1:00 PM,62,52,60,29.91,9,NNE,3.5,,,,Scattered Clouds,30,2013-02-18 12:00:00
1:00 PM,62.6,51.8,68,29.89,6.2,NNE,3.5,-,N/A,,Scattered Clouds,30,2013-02-18 12:00:00
1:30 PM,62.6,55.4,77,29.89,6.2,East,5.8,-,N/A,,Scattered Clouds,90,2013-02-18 12:30:00
2:00 PM,60.8,53.6,77,29.86,5.0,ESE,8.1,-,N/A,,Scattered Clouds,110,2013-02-18 13:00:00
2:30 PM,60.8,55.4,82,29.86,5.0,ESE,10.4,-,N/A,,Scattered Clouds,120,2013-02-18 13:30:00
3:00 PM,59.0,55.4,88,29.83,5.0,ESE,12.7,-,N/A,,Scattered Clouds,120,2013-02-18 14:00:00
3:30 PM,59.0,55.4,88,29.83,3.7,ESE,10.4,-,N/A,,Scattered Clouds,120,2013-02-18 14:30:00
4:00 PM,59.0,55.4,88,29.83,3.7,ESE,9.2,-,N/A,,Scattered Clouds,110,2013-02-18 15:00:00
4:30 PM,59.0,55.4,88,29.83,3.7,ESE,10.4,-,N/A,,Scattered Clouds,120,2013-02-18 15:30:00
5:00 PM,59.0,55.4,88,29.83,5.0,ESE,9.2,-,N/A,,Scattered Clouds,120,2013-02-18 16:00:00
5:30 PM,59.0,55.4,88,29.83,5.0,ESE,8.1,-,N/A,,Scattered Clouds,120,2013-02-18 16:30:00
6:00 PM,59.0,55.4,88,29.80,5.0,SE,5.8,-,N/A,,Partly Cloudy,130,2013-02-18 17:00:00
6:30 PM,57.2,55.4,94,29.80,5.0,SE,5.8,-,N/A,,Partly Cloudy,130,2013-02-18 17:30:00
7:00 PM,57,55,89,29.85,5,South,5.8,,,,Mist,170,2013-02-18 18:00:00
7:00 PM,57.2,55.4,94,29.83,5.0,South,5.8,-,N/A,,Mostly Cloudy,170,2013-02-18 18:00:00
7:17 PM,57.2,55.4,94,29.83,5.0,South,6.9,-,N/A,Rain,Rain,170,2013-02-18 18:17:00
7:30 PM,57.2,55.4,94,29.83,5.0,SSE,4.6,-,N/A,Rain,Rain,160,2013-02-18 18:30:00
8:00 PM,57.2,55.4,94,29.83,5.0,SSE,5.8,-,N/A,,Scattered Clouds,160,2013-02-18 19:00:00
8:30 PM,57.2,55.4,94,29.86,5.0,South,5.8,-,N/A,Rain,Light Rain,180,2013-02-18 19:30:00
9:00 PM,57.2,55.4,94,29.86,6.2,SSE,3.5,-,N/A,,Mostly Cloudy,160,2013-02-18 20:00:00
9:30 PM,57.2,55.4,94,29.83,6.2,Variable,1.2,-,N/A,,Mostly Cloudy,0,2013-02-18 20:30:00
10:00 PM,57.2,55.4,94,29.86,6.2,SSE,3.5,-,N/A,,Mostly Cloudy,150,2013-02-18 21:00:00
10:30 PM,57.2,55.4,94,29.83,6.2,SE,4.6,-,N/A,Rain,Light Rain,140,2013-02-18 21:30:00
11:00 PM,57.2,53.6,88,29.86,6.2,ESE,5.8,-,N/A,Rain,Light Rain,110,2013-02-18 22:00:00
11:30 PM,57.2,53.6,88,29.86,6.2,SE,9.2,-,N/A,Rain,Light Rain,130,2013-02-18 22:30:00